Vorticity
10 -1 -7 0 7 -14 -11 -5 -0 13 31 2 17 10 46 10 -12 7 8 6 8 7 15 10 4 2 24 53 36 40 40 30 27 2 10 -1 19 32 24 46 9 1 7 10
4 -0 9 5 9 9 4 -1 -5 12 14 4 2 7 -8 15 7 3 11 14 9 10 14 13 8 3 3 2 2 2 4 7 15 29 23 24 23 29 21 14 17 10 2 2
-1 8 56 1 10 6 5 2 5 9 1 19 5 3 7 11 12 1 -1 6 8 6 12 8 13 9 3 4 3 2 2 3 3 3 6 3 4 2 0 5 6 4 0 -2
4 20 -43 15 14 -3 -2 9 11 20 22 9 2 -7 -2 20 20 -1 -0 -3 6 5 15 4 10 11 10 5 5 3 2 5 5 6 4 1 2 9 9 7 5 5 5 6
3 17 5 4 15 -5 13 6 4 5 7 13 5 23 10 -1 30 3 -4 1 -3 4 4 15 7 6 5 9 8 6 8 7 6 7 7 6 7 8 9 11 11 9 7 6
18 14 -6 22 8 1 -1 9 -0 5 10 27 18 7 30 14 33 12 9 4 3 -0 10 12 8 4 5 6 7 5 6 5 4 5 5 5 6 4 3 5 7 5 7 8
9 1 6 -7 -7 0 9 11 24 25 27 0 2 35 -23 8 3 15 14 10 2 12 6 1 10 7 6 10 7 6 4 3 1 5 7 13 8 6 7 6 4 5 6 2
-11 59 17 26 -1 8 -1 7 -39 9 8 4 11 14 -4 39 51 19 11 3 14 6 9 6 5 7 14 6 6 6 5 5 3 5 6 4 7 4 3 4 6 8 4 6
42 7 -10 8 1 20 6 24 4 -10 8 7 6 11 22 27 9 9 6 9 23 16 7 3 7 10 7 14 10 19 6 3 4 3 4 4 3 5 6 2 1 4 7 5
-15 6 55 -1 15 0 8 6 11 20 4 3 17 27 -8 0 -2 -6 10 15 10 14 6 4 4 -0 4 5 4 1 12 13 15 11 6 3 4 5 2 -2 5 -1 4 2
26 -42 -0 56 -32 16 11 18 2 18 -28 -19 2 15 6 20 -8 20 8 -4 6 14 16 2 2 22 5 9 9 2 -1 4 1 5 11 6 9 10 13 6 3 6 4 7
4 28 1 -18 0 46 27 6 13 -35 17 14 8 14 0 15 26 2 9 10 9 5 -1 9 9 7 24 16 7 24 3 3 -4 -0 -10 8 20 8 7 15 3 9 19 35
49 30 28 62 23 5 -1 30 4 11 -2 -4 -37 24 23 -9 2 16 -4 19 -4 5 10 9 -1 -3 12 15 14 10 19 15 14 4 12 -4 18 12 13 18 9 15 10 1
31 10 -10 -32 39 10 5 35 27 2 13 2 -14 -12 -9 -1 -16 -7 2 10 10 10 3 1 9 -12 13 6 15 13 15 9 13 14 13 4 11 12 11 20 12 10 9 9
40 16 1 16 5 -9 -16 5 56 12 -4 -3 10 6 -8 14 7 -2 13 20 6 -2 10 5 1 7 4 7 6 2 -0 9 13 9 16 13 10 8 9 9 10 10 9 6
1 46 20 6 25 4 -5 -4 10 30 3 -1 8 1 5 -0 17 23 11 -17 12 22 -3 2 17 3 12 6 -4 -7 -3 2 10 13 11 5 7 7 8 8 8 6 3 4
32 3 13 26 43 52 19 10 13 9 10 6 -3 3 -4 21 8 8 -3 5 19 12 3 10 7 7 8 10 10 5 7 11 9 3 5 1 3 5 10 7 4 6 5 4
13 1 33 1 44 9 44 15 41 2 -10 8 15 17 17 50 11 17 17 2 11 14 9 12 11 6 3 9 9 11 7 13 11 3 2 8 7 8 12 11 9 8 12 7
9 -8 32 -18 1 -17 -2 -8 38 21 -4 32 10 13 9 6 8 -1 1 8 10 20 8 3 -3 2 12 13 16 13 13 14 11 8 6 10 18 21 20 18 14 15 15 9
40 -11 21 42 3 -8 71 -16 -39 16 16 7 24 -16 14 9 8 11 8 14 12 16 17 -4 0 12 12 14 13 11 11 11 12 11 20 21 21 20 16 10 6 7 9 13
-35 46 9 14 -7 33 1 42 31 -15 21 0 14 9 5 9 9 17 3 3 10 7 5 8 16 15 11 10 12 14 14 13 15 18 15 11 7 5 5 6 9 8 9 8
5 14 14 13 10 24 10 -7 41 42 4 -3 -4 -4 24 25 13 11 -0 23 12 7 6 12 8 9 -1 7 10 12 15 16 17 13 7 5 5 4 5 6 7 8 7 9
16 -18 -2 10 14 -19 28 -2 7 5 16 52 28 -7 9 9 10 11 14 4 8 6 5 6 8 2 4 9 8 10 15 15 11 7 5 5 6 5 5 7 8 8 9 9
18 25 4 19 -3 3 18 -9 20 -17 -10 0 -0 18 16 12 5 16 10 8 10 5 10 9 5 7 5 6 10 11 11 15 12 8 6 6 7 8 8 8 9 9 8 8
17 1 3 -5 3 13 -8 20 3 1 12 11 -8 12 19 22 12 8 10 6 4 6 5 6 7 2 9 5 9 12 11 12 13 12 10 9 10 10 10 8 7 8 13 12
11 7 4 14 -2 44 0 68 43 34 11 24 22 23 -10 -18 -3 -14 9 12 8 4 7 7 9 8 10 11 10 13 12 11 11 15 12 11 13 12 10 8 7 4 6 9
Height
3097 3098 3092 3098 3102 3104 3104 3105 3103 3100 3099 3100 3098 3099 3098 3096 3096 3094 3095 3093 3089 3087 3086 3087 3086 3084 3081 3077 3079 3080 3081 3084 3089 3094 3098 3102 3105 3107 3112 3114 3120 3127 3133 3137
3093 3086 3090 3097 3100 3101 3102 3102 3099 3096 3098 3097 3095 3095 3095 3094 3093 3092 3092 3091 3090 3089 3087 3089 3089 3089 3086 3085 3083 3084 3084 3088 3089 3093 3097 3103 3105 3109 3114 3117 3120 3127 3132 3137
3082 3085 3087 3092 3094 3097 3098 3099 3096 3097 3094 3094 3092 3091 3091 3091 3091 3091 3091 3092 3091 3091 3090 3091 3091 3089 3089 3089 3089 3089 3092 3095 3096 3098 3101 3106 3108 3113 3116 3116 3119 3125 3130 3135
3078 3082 3085 3087 3089 3094 3095 3095 3096 3094 3093 3092 3091 3087 3087 3086 3086 3087 3089 3090 3091 3091 3091 3091 3092 3091 3090 3090 3091 3092 3095 3097 3098 3101 3104 3107 3111 3112 3114 3117 3120 3124 3128 3129
3067 3072 3078 3082 3084 3089 3090 3092 3094 3093 3090 3088 3088 3089 3082 3084 3081 3082 3083 3087 3089 3090 3091 3091 3091 3091 3092 3093 3095 3096 3098 3098 3099 3101 3104 3108 3110 3112 3115 3118 3120 3121 3123 3126
3066 3072 3076 3079 3084 3085 3088 3090 3090 3089 3088 3086 3083 3085 3077 3078 3076 3076 3080 3082 3086 3087 3089 3091 3091 3091 3092 3094 3095 3097 3098 3100 3100 3102 3106 3109 3111 3112 3114 3116 3117 3119 3122 3123
3063 3061 3069 3075 3078 3080 3083 3086 3086 3088 3087 3084 3081 3080 3073 3073 3074 3075 3075 3077 3080 3085 3087 3089 3090 3090 3091 3092 3093 3094 3095 3097 3101 3103 3106 3108 3110 3111 3114 3116 3117 3118 3117 3117
3055 3057 3059 3062 3066 3073 3075 3080 3081 3087 3086 3080 3078 3073 3070 3067 3066 3072 3074 3075 3076 3080 3083 3087 3088 3089 3090 3091 3092 3093 3095 3097 3099 3101 3104 3105 3106 3107 3109 3110 3111 3112 3113 3114
3050 3047 3051 3056 3061 3068 3070 3070 3077 3078 3079 3078 3073 3070 3069 3067 3066 3069 3073 3074 3074 3075 3079 3082 3085 3086 3087 3088 3089 3091 3093 3095 3097 3099 3101 3102 3102 3103 3104 3105 3105 3106 3108 3108
3046 3045 3046 3053 3058 3060 3062 3068 3070 3071 3076 3076 3068 3066 3066 3067 3067 3068 3068 3070 3072 3074 3075 3077 3079 3082 3083 3083 3085 3086 3089 3090 3092 3094 3095 3095 3096 3096 3097 3099 3099 3100 3103 3103
3044 3045 3046 3047 3046 3052 3057 3058 3062 3065 3066 3069 3069 3062 3063 3064 3065 3066 3067 3067 3069 3071 3072 3073 3075 3075 3076 3078 3078 3079 3080 3083 3084 3084 3086 3087 3088 3090 3091 3091 3092 3094 3093 3093
3033 3039 3041 3038 3042 3044 3048 3049 3053 3055 3060 3060 3061 3059 3061 3061 3062 3065 3066 3066 3066 3067 3069 3070 3070 3072 3071 3072 3073 3074 3076 3078 3081 3082 3081 3080 3080 3083 3084 3084 3081 3085 3080 3070
3027 3028 3031 3035 3036 3033 3035 3041 3045 3051 3055 3053 3058 3056 3058 3059 3060 3061 3062 3063 3065 3066 3067 3066 3067 3068 3068 3069 3069 3070 3071 3075 3079 3078 3077 3077 3077 3078 3080 3078 3075 3078 3078 3077
3016 3018 3018 3017 3020 3028 3031 3034 3039 3043 3044 3048 3047 3052 3054 3055 3056 3057 3059 3059 3060 3062 3063 3064 3063 3065 3066 3066 3067 3067 3068 3071 3072 3072 3071 3071 3072 3073 3072 3071 3071 3070 3072 3072
3012 3008 3011 3015 3021 3023 3024 3026 3031 3033 3037 3039 3044 3044 3048 3050 3052 3053 3054 3056 3057 3058 3058 3060 3061 3060 3061 3062 3063 3064 3064 3065 3066 3067 3066 3066 3067 3067 3065 3064 3065 3065 3066 3065
3005 3003 3007 3010 3013 3018 3025 3024 3027 3029 3031 3034 3037 3038 3043 3045 3046 3047 3048 3050 3051 3053 3053 3056 3056 3056 3055 3057 3058 3059 3059 3059 3059 3060 3061 3060 3060 3059 3059 3059 3059 3059 3058 3056
3001 3003 3002 3001 3009 3015 3019 3013 3019 3022 3024 3028 3029 3033 3036 3037 3039 3041 3042 3043 3045 3047 3049 3051 3052 3052 3051 3051 3051 3052 3052 3053 3053 3052 3053 3053 3054 3054 3053 3052 3052 3050 3050 3050
2996 3000 3002 3001 3008 3010 2999 3008 3011 3015 3018 3021 3025 3027 3028 3029 3033 3034 3036 3038 3039 3041 3042 3045 3046 3047 3047 3047 3046 3045 3045 3044 3045 3046 3047 3046 3045 3044 3043 3043 3042 3043 3043 3042
2994 2997 2997 2997 3000 2999 3000 3003 3008 3010 3015 3016 3018 3023 3024 3025 3025 3027 3030 3032 3034 3035 3038 3040 3041 3041 3040 3039 3039 3040 3039 3039 3039 3039 3038 3037 3036 3035 3034 3034 3035 3035 3034 3033
2988 2991 2993 2992 2994 2993 2988 2998 3002 3006 3009 3011 3013 3017 3019 3020 3020 3021 3024 3027 3029 3031 3033 3035 3035 3035 3034 3033 3033 3032 3031 3031 3030 3030 3029 3028 3028 3028 3028 3028 3028 3027 3025 3024
2984 2985 2985 2987 2989 2988 2991 2991 2999 3001 3006 3008 3009 3011 3013 3013 3016 3018 3019 3022 3024 3026 3028 3028 3028 3028 3029 3028 3027 3026 3025 3023 3022 3022 3022 3021 3020 3020 3021 3020 3019 3018 3017 3016
2983 2978 2980 2984 2986 2987 2989 2992 2992 2996 2999 3002 3002 3004 3008 3009 3009 3012 3015 3016 3017 3019 3020 3021 3022 3022 3022 3023 3022 3020 3018 3017 3016 3015 3015 3014 3014 3013 3013 3012 3011 3010 3008 3006
2979 2978 2978 2982 2981 2985 2985 2987 2987 2988 2992 2995 2997 2998 3000 3003 3004 3006 3009 3011 3011 3012 3013 3014 3015 3015 3015 3016 3015 3012 3011 3010 3009 3009 3008 3007 3006 3005 3004 3003 3002 3000 2999 2997
2972 2975 2977 2979 2979 2981 2982 2982 2984 2984 2986 2991 2989 2992 2994 2997 2999 3002 3002 3003 3004 3006 3006 3007 3008 3008 3008 3007 3007 3005 3003 3003 3003 3002 3000 2999 2998 2997 2996 2994 2992 2991 2989 2987
2970 2974 2975 2974 2976 2977 2976 2977 2978 2982 2984 2987 2987 2986 2988 2991 2994 2996 2996 2998 2998 2998 3000 3001 3001 3001 2999 2997 2994 2994 2995 2994 2994 2994 2992 2991 2989 2987 2986 2984 2983 2981 2979 2976
2965 2968 2970 2970 2973 2973 2972 2970 2971 2971 2975 2978 2981 2982 2983 2986 2987 2989 2991 2991 2991 2992 2992 2994 2993 2993 2991 2989 2987 2985 2984 2983 2983 2983 2983 2982 2980 2978 2977 2975 2974 2971 2967 2965